Tracking 19477 objects as of 16-Jan-2019
HD Live streaming from Space Station
objects crossing your sky now

MOVE-II

Track MOVE-II now!
10-day predictions


NORAD ID: 43780
Int'l Code: 2018-099Y
Perigee: 579.5 km
Apogee: 600.2 km
Inclination: 97.8 °
Period: 96.3 minutes
Semi major axis: 6960 km
RCS: Unknown
Launch date: December 3, 2018
Source: Germany (GER)
Launch site: AIR FORCE WESTERN TEST RANGE (AFWTR)
aabbcc
Your satellite tracking list
Your tracking list is empty




NASA's NSSDC Master Catalog

Two Line Element Set (TLE):
1 43780U 18099Y   19015.18957170  .00000153  00000-0  19269-4 0  9993
2 43780  97.7622  88.9062 0014888 125.0585 235.2034 14.94885887  6327
Source of the keplerian elements: AFSPC